Time,TemperatureF,DewpointF,PressureIn,WindDirection,WindDirectionDegrees,WindSpeedMPH,WindSpeedGustMPH,Humidity,HourlyPrecipIn,Conditions,Clouds,dailyrainin,SoftwareType,DateUTC
2013-03-22 00:00:00,27.1,13.1,29.06,West,270,8.0,8.0,55,0.00,,,0.00,meteohub,2013-03-22 04:00:00,
2013-03-22 00:05:00,27.1,13.1,29.06,West,270,5.0,9.0,55,0.00,,,0.00,meteohub,2013-03-22 04:05:00,
2013-03-22 00:10:00,27.1,13.1,29.06,WNW,292,4.0,9.0,55,0.00,,,0.00,meteohub,2013-03-22 04:10:00,
2013-03-22 00:16:00,27.1,12.7,29.06,WNW,292,4.0,8.0,54,0.00,,,0.00,meteohub,2013-03-22 04:16:00,
2013-03-22 00:21:00,27.1,12.7,29.06,West,270,6.0,8.0,54,0.00,,,0.00,meteohub,2013-03-22 04:21:00,
2013-03-22 00:26:00,27.1,12.7,29.06,SSW,202,5.0,8.0,54,0.00,,,0.00,meteohub,2013-03-22 04:26:00,
2013-03-22 00:31:00,27.0,12.9,29.06,West,270,6.0,9.0,55,0.00,,,0.00,meteohub,2013-03-22 04:31:00,
2013-03-22 00:36:00,27.0,12.9,29.06,WNW,292,8.0,9.0,55,0.00,,,0.00,meteohub,2013-03-22 04:36:00,
2013-03-22 00:41:00,27.0,12.9,29.06,SW,225,2.0,9.0,55,0.00,,,0.00,meteohub,2013-03-22 04:41:00,
2013-03-22 00:46:00,27.0,12.9,29.06,North,0,10.0,10.0,55,0.00,,,0.00,meteohub,2013-03-22 04:46:00,
2013-03-22 00:51:00,27.0,13.5,29.06,NE,45,4.0,10.0,56,0.00,,,0.00,meteohub,2013-03-22 04:51:00,
2013-03-22 00:56:00,27.0,13.5,29.06,NNW,338,3.0,10.0,56,0.00,,,0.00,meteohub,2013-03-22 04:56:00,
2013-03-22 01:01:00,26.8,13.3,29.06,West,270,1.0,10.0,56,0.00,,,0.00,meteohub,2013-03-22 05:01:00,
2013-03-22 01:06:00,26.8,13.3,29.06,WNW,292,6.0,8.0,56,0.00,,,0.00,meteohub,2013-03-22 05:06:00,
2013-03-22 01:11:00,26.8,13.3,29.06,WSW,248,0.0,8.0,56,0.00,,,0.00,meteohub,2013-03-22 05:11:00,
2013-03-22 01:16:00,26.8,13.3,29.06,North,0,2.0,6.0,56,0.00,,,0.00,meteohub,2013-03-22 05:16:00,
2013-03-22 01:21:00,26.8,12.7,29.03,NW,315,1.0,7.0,55,0.00,,,0.00,meteohub,2013-03-22 05:21:00,
2013-03-22 01:26:00,26.6,13.1,29.03,West,270,2.0,8.0,56,0.00,,,0.00,meteohub,2013-03-22 05:26:00,
2013-03-22 01:32:00,26.6,13.1,29.03,West,270,6.0,8.0,56,0.00,,,0.00,meteohub,2013-03-22 05:32:00,
2013-03-22 01:37:00,26.6,13.1,29.06,WNW,292,2.0,7.0,56,0.00,,,0.00,meteohub,2013-03-22 05:37:00,
2013-03-22 01:42:00,26.6,13.1,29.06,WNW,292,4.0,6.0,56,0.00,,,0.00,meteohub,2013-03-22 05:42:00,
2013-03-22 01:47:00,26.6,13.1,29.06,NW,315,1.0,8.0,56,0.00,,,0.00,meteohub,2013-03-22 05:47:00,
2013-03-22 01:52:00,26.6,12.6,29.03,WNW,292,5.0,9.0,55,0.00,,,0.00,meteohub,2013-03-22 05:52:00,
2013-03-22 01:57:00,26.4,12.4,29.03,NW,315,4.0,9.0,55,0.00,,,0.00,meteohub,2013-03-22 05:57:00,
2013-03-22 02:02:00,26.4,12.4,29.03,WNW,292,4.0,9.0,55,0.00,,,0.00,meteohub,2013-03-22 06:02:00,
2013-03-22 02:07:00,26.4,12.4,29.06,West,270,5.0,9.0,55,0.00,,,0.00,meteohub,2013-03-22 06:07:00,
2013-03-22 02:12:00,26.4,12.4,29.06,NW,315,0.0,9.0,55,0.00,,,0.00,meteohub,2013-03-22 06:12:00,
2013-03-22 02:17:00,26.4,12.4,29.06,West,270,3.0,5.0,55,0.00,,,0.00,meteohub,2013-03-22 06:17:00,
2013-03-22 02:22:00,26.4,12.0,29.06,NW,315,2.0,5.0,54,0.00,,,0.00,meteohub,2013-03-22 06:22:00,
2013-03-22 02:27:00,26.4,12.0,29.06,WNW,292,6.0,6.0,54,0.00,,,0.00,meteohub,2013-03-22 06:27:00,
2013-03-22 02:32:00,26.2,11.5,29.06,NW,315,6.0,6.0,53,0.00,,,0.00,meteohub,2013-03-22 06:32:00,
2013-03-22 02:37:00,26.2,11.5,29.06,West,270,3.0,7.0,53,0.00,,,0.00,meteohub,2013-03-22 06:37:00,
2013-03-22 02:42:00,26.2,11.5,29.06,North,0,6.0,7.0,53,0.00,,,0.00,meteohub,2013-03-22 06:42:00,
2013-03-22 02:47:00,26.2,11.5,29.06,West,270,4.0,9.0,53,0.00,,,0.00,meteohub,2013-03-22 06:47:00,
2013-03-22 02:52:00,26.2,11.5,29.03,NW,315,3.0,9.0,53,0.00,,,0.00,meteohub,2013-03-22 06:52:00,
2013-03-22 02:57:00,26.1,11.3,29.03,SW,225,3.0,9.0,53,0.00,,,0.00,meteohub,2013-03-22 06:57:00,
2013-03-22 03:02:00,26.1,11.3,29.06,North,0,1.0,8.0,53,0.00,,,0.00,meteohub,2013-03-22 07:02:00,
2013-03-22 03:07:00,26.1,11.3,29.06,SSE,158,1.0,8.0,53,0.00,,,0.00,meteohub,2013-03-22 07:07:00,
2013-03-22 03:12:00,26.1,11.3,29.06,WNW,292,5.0,8.0,53,0.00,,,0.00,meteohub,2013-03-22 07:12:00,
2013-03-22 03:17:00,26.1,11.3,29.06,North,0,2.0,10.0,53,0.00,,,0.00,meteohub,2013-03-22 07:17:00,
2013-03-22 03:22:00,26.1,11.3,29.06,NW,315,2.0,10.0,53,0.00,,,0.00,meteohub,2013-03-22 07:22:00,
2013-03-22 03:27:00,26.1,11.3,29.06,WNW,292,4.0,9.0,53,0.00,,,0.00,meteohub,2013-03-22 07:27:00,
2013-03-22 03:32:00,25.9,11.1,29.06,NNW,338,3.0,8.0,53,0.00,,,0.00,meteohub,2013-03-22 07:32:00,
2013-03-22 03:37:00,25.9,11.1,29.06,NNW,338,2.0,14.0,53,0.00,,,0.00,meteohub,2013-03-22 07:37:00,
2013-03-22 03:42:00,25.9,11.1,29.06,WNW,292,4.0,14.0,53,0.00,,,0.00,meteohub,2013-03-22 07:42:00,
2013-03-22 03:47:00,25.9,11.1,29.06,West,270,6.0,14.0,53,0.00,,,0.00,meteohub,2013-03-22 07:47:00,
2013-03-22 03:52:00,25.9,11.1,29.06,SW,225,1.0,10.0,53,0.00,,,0.00,meteohub,2013-03-22 07:52:00,
2013-03-22 03:57:00,25.9,11.5,29.06,WSW,248,2.0,10.0,54,0.00,,,0.00,meteohub,2013-03-22 07:57:00,
2013-03-22 04:02:00,25.9,11.5,29.06,NNE,22,2.0,7.0,54,0.00,,,0.00,meteohub,2013-03-22 08:02:00,
2013-03-22 04:08:00,25.7,11.3,29.06,WSW,248,3.0,8.0,54,0.00,,,0.00,meteohub,2013-03-22 08:08:00,
2013-03-22 04:13:00,25.7,11.3,29.06,NW,315,1.0,8.0,54,0.00,,,0.00,meteohub,2013-03-22 08:13:00,
2013-03-22 04:18:00,25.7,11.3,29.06,NW,315,6.0,8.0,54,0.00,,,0.00,meteohub,2013-03-22 08:18:00,
2013-03-22 04:23:00,25.7,11.3,29.06,WNW,292,2.0,8.0,54,0.00,,,0.00,meteohub,2013-03-22 08:23:00,
2013-03-22 04:28:00,25.7,11.8,29.06,WNW,292,3.0,9.0,55,0.00,,,0.00,meteohub,2013-03-22 08:28:00,
2013-03-22 04:33:00,25.7,11.8,29.06,WNW,292,2.0,9.0,55,0.00,,,0.00,meteohub,2013-03-22 08:33:00,
2013-03-22 04:38:00,25.7,11.8,29.06,WSW,248,2.0,9.0,55,0.00,,,0.00,meteohub,2013-03-22 08:38:00,
2013-03-22 04:43:00,25.5,11.7,29.06,WSW,248,1.0,6.0,55,0.00,,,0.00,meteohub,2013-03-22 08:43:00,
2013-03-22 04:48:00,25.5,11.7,29.06,WNW,292,5.0,8.0,55,0.00,,,0.00,meteohub,2013-03-22 08:48:00,
2013-03-22 04:53:00,25.5,11.7,29.06,NW,315,3.0,8.0,55,0.00,,,0.00,meteohub,2013-03-22 08:53:00,
2013-03-22 04:58:00,25.5,11.7,29.06,ENE,68,2.0,5.0,55,0.00,,,0.00,meteohub,2013-03-22 08:58:00,
2013-03-22 05:03:00,25.5,11.7,29.06,ENE,68,2.0,3.0,55,0.00,,,0.00,meteohub,2013-03-22 09:03:00,
2013-03-22 05:08:00,25.5,11.7,29.06,WNW,292,1.0,3.0,55,0.00,,,0.00,meteohub,2013-03-22 09:08:00,
2013-03-22 05:13:00,25.5,11.7,29.06,WNW,292,1.0,3.0,55,0.00,,,0.00,meteohub,2013-03-22 09:13:00,
2013-03-22 05:18:00,25.3,11.5,29.06,NW,315,3.0,-999.0,55,0.00,,,0.00,meteohub,2013-03-22 09:18:00,
2013-03-22 05:23:00,25.3,11.5,29.06,NW,315,0.0,1.0,55,0.00,,,0.00,meteohub,2013-03-22 09:23:00,
2013-03-22 05:29:00,25.3,11.5,29.09,West,270,3.0,3.0,55,0.00,,,0.00,meteohub,2013-03-22 09:29:00,
2013-03-22 05:34:00,25.3,11.5,29.06,WNW,292,4.0,4.0,55,0.00,,,0.00,meteohub,2013-03-22 09:34:00,
2013-03-22 05:39:00,25.3,11.5,29.06,WNW,292,4.0,5.0,55,0.00,,,0.00,meteohub,2013-03-22 09:39:00,
2013-03-22 05:44:00,25.3,11.5,29.06,NW,315,1.0,6.0,55,0.00,,,0.00,meteohub,2013-03-22 09:44:00,
2013-03-22 05:49:00,25.3,11.5,29.06,North,0,4.0,6.0,55,0.00,,,0.00,meteohub,2013-03-22 09:49:00,
2013-03-22 05:54:00,25.3,11.8,29.06,NW,315,2.0,6.0,56,0.00,,,0.00,meteohub,2013-03-22 09:54:00,
2013-03-22 05:59:00,25.2,11.7,29.06,WNW,292,4.0,5.0,56,0.00,,,0.00,meteohub,2013-03-22 09:59:00,
2013-03-22 06:04:00,25.2,11.7,29.09,WNW,292,3.0,5.0,56,0.00,,,0.00,meteohub,2013-03-22 10:04:00,
2013-03-22 06:09:00,25.2,11.7,29.09,West,270,1.0,5.0,56,0.00,,,0.00,meteohub,2013-03-22 10:09:00,
2013-03-22 06:14:00,25.2,11.3,29.09,NW,315,3.0,6.0,55,0.00,,,0.00,meteohub,2013-03-22 10:14:00,
2013-03-22 06:19:00,25.2,11.7,29.09,West,270,6.0,10.0,56,0.00,,,0.00,meteohub,2013-03-22 10:19:00,
2013-03-22 06:24:00,25.0,11.5,29.09,NW,315,7.0,10.0,56,0.00,,,0.00,meteohub,2013-03-22 10:24:00,
2013-03-22 06:29:00,25.0,11.5,29.09,West,270,5.0,10.0,56,0.00,,,0.00,meteohub,2013-03-22 10:29:00,
2013-03-22 06:34:00,25.0,11.5,29.09,West,270,2.0,7.0,56,0.00,,,0.00,meteohub,2013-03-22 10:34:00,
2013-03-22 06:39:00,25.0,11.1,29.09,West,270,7.0,7.0,55,0.00,,,0.00,meteohub,2013-03-22 10:39:00,
2013-03-22 06:44:00,25.0,11.1,29.09,West,270,0.0,9.0,55,0.00,,,0.00,meteohub,2013-03-22 10:44:00,
2013-03-22 06:49:00,25.0,11.5,29.12,WNW,292,4.0,9.0,56,0.00,,,0.00,meteohub,2013-03-22 10:49:00,
2013-03-22 06:54:00,25.0,11.5,29.12,NW,315,6.0,9.0,56,0.00,,,0.00,meteohub,2013-03-22 10:54:00,
2013-03-22 06:59:00,25.0,11.5,29.12,North,0,1.0,6.0,56,0.00,,,0.00,meteohub,2013-03-22 10:59:00,
2013-03-22 07:04:00,25.0,11.5,29.12,West,270,5.0,6.0,56,0.00,,,0.00,meteohub,2013-03-22 11:04:00,
2013-03-22 07:09:00,25.0,11.5,29.12,NNE,22,1.0,6.0,56,0.00,,,0.00,meteohub,2013-03-22 11:09:00,
2013-03-22 07:14:00,25.0,11.5,29.12,NW,315,4.0,10.0,56,0.00,,,0.00,meteohub,2013-03-22 11:14:00,
2013-03-22 07:19:00,24.8,11.3,29.15,ENE,68,3.0,10.0,56,0.00,,,0.00,meteohub,2013-03-22 11:19:00,
2013-03-22 07:24:00,24.8,11.3,29.15,WNW,292,5.0,10.0,56,0.00,,,0.00,meteohub,2013-03-22 11:24:00,
2013-03-22 07:29:00,24.8,11.3,29.15,WSW,248,6.0,6.0,56,0.00,,,0.00,meteohub,2013-03-22 11:29:00,
2013-03-22 07:34:00,24.8,11.3,29.12,West,270,4.0,6.0,56,0.00,,,0.00,meteohub,2013-03-22 11:34:00,
2013-03-22 07:39:00,24.8,11.3,29.12,NNW,338,4.0,6.0,56,0.00,,,0.00,meteohub,2013-03-22 11:39:00,
2013-03-22 07:44:00,24.8,11.3,29.12,WNW,292,3.0,6.0,56,0.00,,,0.00,meteohub,2013-03-22 11:44:00,
2013-03-22 07:49:00,24.8,11.3,29.12,NNW,338,2.0,6.0,56,0.00,,,0.00,meteohub,2013-03-22 11:49:00,
2013-03-22 07:54:00,25.0,11.1,29.12,West,270,6.0,6.0,55,0.00,,,0.00,meteohub,2013-03-22 11:54:00,
2013-03-22 07:59:00,25.0,11.1,29.12,WNW,292,6.0,7.0,55,0.00,,,0.00,meteohub,2013-03-22 11:59:00,
2013-03-22 08:04:00,25.0,11.5,29.09,SSW,202,3.0,7.0,56,0.00,,,0.00,meteohub,2013-03-22 12:04:00,
2013-03-22 08:09:00,25.2,11.7,29.09,West,270,3.0,7.0,56,0.00,,,0.00,meteohub,2013-03-22 12:09:00,
2013-03-22 08:14:00,25.3,11.8,29.09,West,270,2.0,6.0,56,0.00,,,0.00,meteohub,2013-03-22 12:14:00,
2013-03-22 08:19:00,25.3,11.8,29.12,WSW,248,3.0,6.0,56,0.00,,,0.00,meteohub,2013-03-22 12:19:00,
2013-03-22 08:24:00,25.3,11.5,29.12,SW,225,4.0,5.0,55,0.00,,,0.00,meteohub,2013-03-22 12:24:00,
2013-03-22 08:29:00,25.5,11.7,29.12,West,270,2.0,5.0,55,0.00,,,0.00,meteohub,2013-03-22 12:29:00,
2013-03-22 08:34:00,25.7,11.8,29.12,West,270,2.0,6.0,55,0.00,,,0.00,meteohub,2013-03-22 12:34:00,
2013-03-22 08:39:00,25.9,12.0,29.12,NW,315,2.0,6.0,55,0.00,,,0.00,meteohub,2013-03-22 12:39:00,
2013-03-22 08:45:00,26.1,11.7,29.12,WNW,292,2.0,7.0,54,0.00,,,0.00,meteohub,2013-03-22 12:45:00,
2013-03-22 08:50:00,26.1,11.7,29.12,NW,315,2.0,7.0,54,0.00,,,0.00,meteohub,2013-03-22 12:50:00,
2013-03-22 08:55:00,26.2,11.8,29.12,WNW,292,3.0,7.0,54,0.00,,,0.00,meteohub,2013-03-22 12:55:00,
2013-03-22 09:00:00,26.2,11.5,29.12,NW,315,4.0,6.0,53,0.00,,,0.00,meteohub,2013-03-22 13:00:00,
2013-03-22 09:05:00,26.4,11.7,29.12,NW,315,4.0,6.0,53,0.00,,,0.00,meteohub,2013-03-22 13:05:00,
2013-03-22 09:10:00,26.6,11.8,29.12,North,0,5.0,6.0,53,0.00,,,0.00,meteohub,2013-03-22 13:10:00,
2013-03-22 09:15:00,26.6,11.8,29.12,WNW,292,4.0,9.0,53,0.00,,,0.00,meteohub,2013-03-22 13:15:00,
2013-03-22 09:20:00,26.8,11.5,29.12,NW,315,3.0,9.0,52,0.00,,,0.00,meteohub,2013-03-22 13:20:00,
2013-03-22 09:25:00,27.0,11.7,29.12,North,0,8.0,12.0,52,0.00,,,0.00,meteohub,2013-03-22 13:25:00,
2013-03-22 09:30:00,27.0,11.7,29.12,North,0,3.0,12.0,52,0.00,,,0.00,meteohub,2013-03-22 13:30:00,
2013-03-22 09:35:00,27.1,11.8,29.12,WNW,292,3.0,10.0,52,0.00,,,0.00,meteohub,2013-03-22 13:35:00,
2013-03-22 09:40:00,27.1,11.5,29.12,West,270,1.0,10.0,51,0.00,,,0.00,meteohub,2013-03-22 13:40:00,
2013-03-22 09:45:00,27.9,12.6,29.12,North,0,3.0,10.0,52,0.00,,,0.00,meteohub,2013-03-22 13:45:00,
2013-03-22 09:50:00,27.9,12.0,29.12,WNW,292,6.0,8.0,51,0.00,,,0.00,meteohub,2013-03-22 13:50:00,
2013-03-22 09:55:00,28.2,12.4,29.12,West,270,4.0,13.0,51,0.00,,,0.00,meteohub,2013-03-22 13:55:00,
2013-03-22 10:00:00,28.6,12.4,29.12,North,0,1.0,13.0,50,0.00,,,0.00,meteohub,2013-03-22 14:00:00,
2013-03-22 10:05:00,28.6,12.4,29.12,NNW,338,2.0,8.0,50,0.00,,,0.00,meteohub,2013-03-22 14:05:00,
2013-03-22 10:10:00,28.6,11.8,29.12,West,270,3.0,8.0,49,0.00,,,0.00,meteohub,2013-03-22 14:10:00,
2013-03-22 10:15:00,28.8,12.0,29.12,West,270,5.0,8.0,49,0.00,,,0.00,meteohub,2013-03-22 14:15:00,
2013-03-22 10:20:00,28.9,12.2,29.12,NNW,338,2.0,8.0,49,0.00,,,0.00,meteohub,2013-03-22 14:20:00,
2013-03-22 10:25:00,29.5,12.7,29.12,NW,315,6.0,6.0,49,0.00,,,0.00,meteohub,2013-03-22 14:25:00,
2013-03-22 10:30:00,30.0,13.3,29.12,NW,315,3.0,8.0,49,0.00,,,0.00,meteohub,2013-03-22 14:30:00,
2013-03-22 10:35:00,30.0,13.3,29.12,NW,315,2.0,8.0,49,0.00,,,0.00,meteohub,2013-03-22 14:35:00,
2013-03-22 10:40:00,29.8,12.6,29.12,NW,315,3.0,8.0,48,0.00,,,0.00,meteohub,2013-03-22 14:40:00,
2013-03-22 10:45:00,30.0,12.7,29.12,West,270,5.0,6.0,48,0.00,,,0.00,meteohub,2013-03-22 14:45:00,
2013-03-22 10:50:00,29.8,12.0,29.12,West,270,6.0,6.0,47,0.00,,,0.00,meteohub,2013-03-22 14:50:00,
2013-03-22 10:55:00,30.9,12.6,29.12,West,270,4.0,8.0,46,0.00,,,0.00,meteohub,2013-03-22 14:55:00,
2013-03-22 11:00:00,30.9,12.0,29.12,WNW,292,5.0,8.0,45,0.00,,,0.00,meteohub,2013-03-22 15:00:00,
2013-03-22 11:05:00,31.3,12.9,29.12,NNW,338,4.0,8.0,46,0.00,,,0.00,meteohub,2013-03-22 15:05:00,
2013-03-22 11:10:00,32.5,14.2,29.12,West,270,2.0,8.0,46,0.00,,,0.00,meteohub,2013-03-22 15:10:00,
2013-03-22 11:15:00,32.2,13.3,29.12,West,270,4.0,8.0,45,0.00,,,0.00,meteohub,2013-03-22 15:15:00,
2013-03-22 11:20:00,32.2,13.3,29.12,NNW,338,2.0,8.0,45,0.00,,,0.00,meteohub,2013-03-22 15:20:00,
2013-03-22 11:25:00,33.4,14.0,29.12,NW,315,8.0,8.0,44,0.00,,,0.00,meteohub,2013-03-22 15:25:00,
2013-03-22 11:30:00,33.6,13.6,29.12,NW,315,6.0,8.0,43,0.00,,,0.00,meteohub,2013-03-22 15:30:00,
2013-03-22 11:35:00,35.4,15.3,29.12,WNW,292,4.0,8.0,43,0.00,,,0.00,meteohub,2013-03-22 15:35:00,
2013-03-22 11:40:00,36.1,15.3,29.12,West,270,3.0,6.0,42,0.00,,,0.00,meteohub,2013-03-22 15:40:00,
2013-03-22 11:45:00,36.9,16.0,29.12,WNW,292,2.0,6.0,42,0.00,,,0.00,meteohub,2013-03-22 15:45:00,
2013-03-22 11:50:00,36.3,14.9,29.12,WSW,248,8.0,8.0,41,0.00,,,0.00,meteohub,2013-03-22 15:50:00,
2013-03-22 11:55:00,34.5,13.3,29.12,West,270,4.0,10.0,41,0.00,,,0.00,meteohub,2013-03-22 15:55:00,
2013-03-22 12:00:00,34.3,13.1,29.12,WSW,248,6.0,10.0,41,0.00,,,0.00,meteohub,2013-03-22 16:00:00,
2013-03-22 12:05:00,34.3,13.6,29.12,North,0,3.0,10.0,42,0.00,,,0.00,meteohub,2013-03-22 16:05:00,
2013-03-22 12:10:00,34.0,13.3,29.12,NE,45,9.0,9.0,42,0.00,,,0.00,meteohub,2013-03-22 16:10:00,
2013-03-22 12:15:00,33.6,13.6,29.12,West,270,3.0,9.0,43,0.00,,,0.00,meteohub,2013-03-22 16:15:00,
2013-03-22 12:20:00,33.6,13.6,29.12,West,270,6.0,9.0,43,0.00,,,0.00,meteohub,2013-03-22 16:20:00,
2013-03-22 12:26:00,33.3,13.3,29.12,SW,225,2.0,9.0,43,0.00,,,0.00,meteohub,2013-03-22 16:26:00,
2013-03-22 12:31:00,33.3,13.3,29.12,SW,225,3.0,10.0,43,0.00,,,0.00,meteohub,2013-03-22 16:31:00,
2013-03-22 12:36:00,33.4,14.0,29.12,West,270,2.0,10.0,44,0.00,,,0.00,meteohub,2013-03-22 16:36:00,
2013-03-22 12:41:00,33.8,13.8,29.12,West,270,4.0,10.0,43,0.00,,,0.00,meteohub,2013-03-22 16:41:00,
2013-03-22 12:46:00,34.0,14.4,29.12,WSW,248,3.0,8.0,44,0.00,,,0.00,meteohub,2013-03-22 16:46:00,
2013-03-22 12:51:00,34.3,14.2,29.12,West,270,2.0,6.0,43,0.00,,,0.00,meteohub,2013-03-22 16:51:00,
2013-03-22 12:56:00,34.0,13.8,29.12,WSW,248,5.0,6.0,43,0.00,,,0.00,meteohub,2013-03-22 16:56:00,
2013-03-22 13:01:00,34.2,14.0,29.12,NNW,338,1.0,7.0,43,0.00,,,0.00,meteohub,2013-03-22 17:01:00,
2013-03-22 13:06:00,34.5,14.4,29.12,North,0,1.0,7.0,43,0.00,,,0.00,meteohub,2013-03-22 17:06:00,
2013-03-22 13:11:00,35.1,14.9,29.12,West,270,3.0,7.0,43,0.00,,,0.00,meteohub,2013-03-22 17:11:00,
2013-03-22 13:16:00,35.6,15.4,29.12,West,270,4.0,7.0,43,0.00,,,0.00,meteohub,2013-03-22 17:16:00,
2013-03-22 13:21:00,35.2,14.5,29.12,SW,225,4.0,8.0,42,0.00,,,0.00,meteohub,2013-03-22 17:21:00,
2013-03-22 13:26:00,35.6,14.9,29.12,West,270,4.0,8.0,42,0.00,,,0.00,meteohub,2013-03-22 17:26:00,
2013-03-22 13:31:00,35.6,14.9,29.12,West,270,6.0,8.0,42,0.00,,,0.00,meteohub,2013-03-22 17:31:00,
2013-03-22 13:36:00,35.4,14.7,29.12,West,270,2.0,7.0,42,0.00,,,0.00,meteohub,2013-03-22 17:36:00,
2013-03-22 13:42:00,35.4,14.7,29.12,West,270,3.0,7.0,42,0.00,,,0.00,meteohub,2013-03-22 17:42:00,
2013-03-22 13:47:00,35.4,15.3,29.12,SW,225,5.0,7.0,43,0.00,,,0.00,meteohub,2013-03-22 17:47:00,
2013-03-22 13:52:00,35.4,14.7,29.12,NW,315,2.0,8.0,42,0.00,,,0.00,meteohub,2013-03-22 17:52:00,
2013-03-22 13:57:00,36.1,15.3,29.12,WNW,292,1.0,8.0,42,0.00,,,0.00,meteohub,2013-03-22 17:57:00,
2013-03-22 14:02:00,37.0,15.6,29.12,NW,315,6.0,7.0,41,0.00,,,0.00,meteohub,2013-03-22 18:02:00,
2013-03-22 14:07:00,36.5,15.1,29.12,WSW,248,5.0,9.0,41,0.00,,,0.00,meteohub,2013-03-22 18:07:00,
2013-03-22 14:12:00,36.5,15.6,29.12,SSW,202,5.0,9.0,42,0.00,,,0.00,meteohub,2013-03-22 18:12:00,
2013-03-22 14:17:00,36.1,14.7,29.12,NW,315,3.0,9.0,41,0.00,,,0.00,meteohub,2013-03-22 18:17:00,
2013-03-22 14:22:00,35.4,14.2,29.12,SW,225,4.0,10.0,41,0.00,,,0.00,meteohub,2013-03-22 18:22:00,
2013-03-22 14:27:00,36.0,15.1,29.12,West,270,9.0,10.0,42,0.00,,,0.00,meteohub,2013-03-22 18:27:00,
2013-03-22 14:32:00,36.1,14.7,29.12,North,0,6.0,10.0,41,0.00,,,0.00,meteohub,2013-03-22 18:32:00,
2013-03-22 14:37:00,36.1,15.3,29.09,West,270,7.0,10.0,42,0.00,,,0.00,meteohub,2013-03-22 18:37:00,
2013-03-22 14:42:00,36.7,15.3,29.09,NW,315,9.0,12.0,41,0.00,,,0.00,meteohub,2013-03-22 18:42:00,
2013-03-22 14:47:00,36.7,15.3,29.09,East,90,5.0,12.0,41,0.00,,,0.00,meteohub,2013-03-22 18:47:00,
2013-03-22 14:52:00,37.4,16.5,29.12,North,0,4.0,9.0,42,0.00,,,0.00,meteohub,2013-03-22 18:52:00,
2013-03-22 14:57:00,37.4,16.0,29.12,West,270,4.0,9.0,41,0.00,,,0.00,meteohub,2013-03-22 18:57:00,
2013-03-22 15:02:00,39.2,16.9,29.12,West,270,8.0,8.0,40,0.00,,,0.00,meteohub,2013-03-22 19:02:00,
2013-03-22 15:07:00,37.9,15.8,29.12,WSW,248,2.0,12.0,40,0.00,,,0.00,meteohub,2013-03-22 19:07:00,
2013-03-22 15:12:00,39.4,16.5,29.12,West,270,5.0,12.0,39,0.00,,,0.00,meteohub,2013-03-22 19:12:00,
2013-03-22 15:17:00,38.5,16.3,29.12,NW,315,3.0,12.0,40,0.00,,,0.00,meteohub,2013-03-22 19:17:00,
2013-03-22 15:22:00,39.2,16.9,29.12,SW,225,6.0,9.0,40,0.00,,,0.00,meteohub,2013-03-22 19:22:00,
2013-03-22 15:27:00,41.2,18.1,29.12,SW,225,3.0,9.0,39,0.00,,,0.00,meteohub,2013-03-22 19:27:00,
2013-03-22 15:32:00,42.1,18.3,29.12,SSW,202,3.0,7.0,38,0.00,,,0.00,meteohub,2013-03-22 19:32:00,
2013-03-22 15:37:00,41.9,18.1,29.12,West,270,4.0,8.0,38,0.00,,,0.00,meteohub,2013-03-22 19:37:00,
2013-03-22 15:42:00,41.2,18.1,29.12,West,270,4.0,10.0,39,0.00,,,0.00,meteohub,2013-03-22 19:42:00,
2013-03-22 15:47:00,43.5,20.3,29.12,North,0,2.0,10.0,39,0.00,,,0.00,meteohub,2013-03-22 19:47:00,
2013-03-22 15:52:00,43.0,19.2,29.12,WNW,292,5.0,10.0,38,0.00,,,0.00,meteohub,2013-03-22 19:52:00,
2013-03-22 15:57:00,42.4,18.7,29.12,SSW,202,6.0,8.0,38,0.00,,,0.00,meteohub,2013-03-22 19:57:00,
2013-03-22 16:02:00,42.6,18.9,29.12,West,270,7.0,11.0,38,0.00,,,0.00,meteohub,2013-03-22 20:02:00,
2013-03-22 16:07:00,41.5,18.0,29.09,SW,225,6.0,11.0,38,0.00,,,0.00,meteohub,2013-03-22 20:07:00,
2013-03-22 16:12:00,40.3,16.7,29.09,SW,225,3.0,7.0,38,0.00,,,0.00,meteohub,2013-03-22 20:12:00,
2013-03-22 16:17:00,39.7,16.9,29.09,NW,315,4.0,7.0,39,0.00,,,0.00,meteohub,2013-03-22 20:17:00,
2013-03-22 16:22:00,39.6,16.7,29.12,East,90,6.0,9.0,39,0.00,,,0.00,meteohub,2013-03-22 20:22:00,
2013-03-22 16:27:00,39.9,17.1,29.12,WSW,248,6.0,9.0,39,0.00,,,0.00,meteohub,2013-03-22 20:27:00,
2013-03-22 16:32:00,41.0,18.0,29.09,WSW,248,1.0,10.0,39,0.00,,,0.00,meteohub,2013-03-22 20:32:00,
2013-03-22 16:37:00,41.7,18.0,29.09,West,270,4.0,10.0,38,0.00,,,0.00,meteohub,2013-03-22 20:37:00,
2013-03-22 16:43:00,41.7,18.0,29.09,SW,225,0.0,9.0,38,0.00,,,0.00,meteohub,2013-03-22 20:43:00,
2013-03-22 16:47:00,42.8,19.0,29.09,West,270,1.0,9.0,38,0.00,,,0.00,meteohub,2013-03-22 20:47:00,
2013-03-22 16:53:00,42.3,18.5,29.09,West,270,7.0,7.0,38,0.00,,,0.00,meteohub,2013-03-22 20:53:00,
2013-03-22 16:58:00,41.2,17.6,29.09,West,270,2.0,6.0,38,0.00,,,0.00,meteohub,2013-03-22 20:58:00,
2013-03-22 17:03:00,41.0,17.4,29.12,WNW,292,4.0,7.0,38,0.00,,,0.00,meteohub,2013-03-22 21:03:00,
2013-03-22 17:08:00,42.1,18.3,29.12,NNW,338,3.0,7.0,38,0.00,,,0.00,meteohub,2013-03-22 21:08:00,
2013-03-22 17:13:00,42.8,17.8,29.12,West,270,2.0,7.0,36,0.00,,,0.00,meteohub,2013-03-22 21:13:00,
2013-03-22 17:18:00,42.1,17.8,29.12,WSW,248,3.0,6.0,37,0.00,,,0.00,meteohub,2013-03-22 21:18:00,
2013-03-22 17:23:00,42.8,17.8,29.12,West,270,3.0,7.0,36,0.00,,,0.00,meteohub,2013-03-22 21:23:00,
2013-03-22 17:28:00,43.0,18.0,29.12,NW,315,3.0,7.0,36,0.00,,,0.00,meteohub,2013-03-22 21:28:00,
2013-03-22 17:33:00,43.9,18.1,29.12,WSW,248,8.0,8.0,35,0.00,,,0.00,meteohub,2013-03-22 21:33:00,
2013-03-22 17:38:00,42.4,17.4,29.12,NNW,338,4.0,8.0,36,0.00,,,0.00,meteohub,2013-03-22 21:38:00,
2013-03-22 17:43:00,42.4,17.4,29.12,West,270,2.0,8.0,36,0.00,,,0.00,meteohub,2013-03-22 21:43:00,
2013-03-22 17:48:00,41.9,16.9,29.12,NNW,338,5.0,8.0,36,0.00,,,0.00,meteohub,2013-03-22 21:48:00,
2013-03-22 17:53:00,41.2,16.3,29.12,West,270,4.0,8.0,36,0.00,,,0.00,meteohub,2013-03-22 21:53:00,
2013-03-22 17:58:00,41.4,16.5,29.12,West,270,6.0,8.0,36,0.00,,,0.00,meteohub,2013-03-22 21:58:00,
2013-03-22 18:03:00,41.4,17.1,29.12,West,270,6.0,6.0,37,0.04,,,0.04,meteohub,2013-03-22 22:03:00,
2013-03-22 18:08:00,41.5,16.7,29.12,West,270,6.0,7.0,36,0.04,,,0.04,meteohub,2013-03-22 22:08:00,
2013-03-22 18:13:00,42.4,17.4,29.12,West,270,3.0,9.0,36,0.04,,,0.04,meteohub,2013-03-22 22:13:00,
2013-03-22 18:18:00,44.2,19.0,29.12,West,270,4.0,9.0,36,0.04,,,0.04,meteohub,2013-03-22 22:18:00,
2013-03-22 18:23:00,43.9,18.1,29.12,West,270,4.0,9.0,35,0.04,,,0.04,meteohub,2013-03-22 22:23:00,
2013-03-22 18:28:00,43.9,18.1,29.12,WSW,248,4.0,5.0,35,0.04,,,0.04,meteohub,2013-03-22 22:28:00,
2013-03-22 18:33:00,44.6,18.7,29.09,NNW,338,1.0,6.0,35,0.04,,,0.04,meteohub,2013-03-22 22:33:00,
2013-03-22 18:38:00,45.9,19.8,29.09,West,270,3.0,6.0,35,0.04,,,0.04,meteohub,2013-03-22 22:38:00,
2013-03-22 18:43:00,43.9,17.4,29.09,West,270,3.0,6.0,34,0.04,,,0.04,meteohub,2013-03-22 22:43:00,
2013-03-22 18:48:00,44.1,17.6,29.12,West,270,3.0,6.0,34,0.04,,,0.04,meteohub,2013-03-22 22:48:00,
2013-03-22 18:53:00,44.4,17.8,29.12,West,270,3.0,6.0,34,0.04,,,0.04,meteohub,2013-03-22 22:53:00,
2013-03-22 18:58:00,42.4,16.2,29.12,WSW,248,7.0,7.0,34,0.00,,,0.04,meteohub,2013-03-22 22:58:00,
2013-03-22 19:03:00,40.5,14.4,29.09,NW,315,5.0,6.0,34,0.00,,,0.04,meteohub,2013-03-22 23:03:00,
2013-03-22 19:08:00,40.3,14.9,29.09,West,270,3.0,9.0,35,0.00,,,0.04,meteohub,2013-03-22 23:08:00,
2013-03-22 19:13:00,38.8,14.2,29.09,West,270,3.0,9.0,36,0.00,,,0.04,meteohub,2013-03-22 23:13:00,
2013-03-22 19:18:00,37.9,14.0,29.09,NNW,338,1.0,9.0,37,0.00,,,0.04,meteohub,2013-03-22 23:18:00,
2013-03-22 19:23:00,37.9,14.7,29.09,West,270,0.0,5.0,38,0.00,,,0.04,meteohub,2013-03-22 23:23:00,
2013-03-22 19:28:00,37.6,14.9,29.09,West,270,3.0,4.0,39,0.00,,,0.04,meteohub,2013-03-22 23:28:00,
2013-03-22 19:33:00,36.3,13.8,29.12,West,270,2.0,4.0,39,0.00,,,0.04,meteohub,2013-03-22 23:33:00,
2013-03-22 19:38:00,35.8,13.8,29.12,West,270,0.0,4.0,40,0.00,,,0.04,meteohub,2013-03-22 23:38:00,
2013-03-22 19:43:00,35.2,13.5,29.12,West,270,0.0,4.0,40,0.00,,,0.04,meteohub,2013-03-22 23:43:00,
2013-03-22 19:48:00,34.9,13.1,29.15,SW,225,1.0,4.0,40,0.00,,,0.04,meteohub,2013-03-22 23:48:00,
2013-03-22 19:53:00,34.3,13.1,29.15,WSW,248,0.0,5.0,41,0.00,,,0.04,meteohub,2013-03-22 23:53:00,
2013-03-22 19:58:00,34.0,12.7,29.15,WSW,248,0.0,5.0,41,0.00,,,0.04,meteohub,2013-03-22 23:58:00,
2013-03-22 20:03:00,33.4,12.9,29.12,WSW,248,0.0,5.0,42,0.00,,,0.04,meteohub,2013-03-23 00:03:00,
2013-03-22 20:08:00,33.3,12.7,29.12,WSW,248,0.0,1.0,42,0.00,,,0.04,meteohub,2013-03-23 00:08:00,
2013-03-22 20:14:00,33.1,12.6,29.12,WSW,248,0.0,2.0,42,0.00,,,0.04,meteohub,2013-03-23 00:14:00,
2013-03-22 20:19:00,32.7,12.7,29.15,NW,315,0.0,2.0,43,0.00,,,0.04,meteohub,2013-03-23 00:19:00,
2013-03-22 20:24:00,32.2,12.2,29.15,NW,315,0.0,3.0,43,0.00,,,0.04,meteohub,2013-03-23 00:24:00,
2013-03-22 20:29:00,31.8,11.8,29.15,NW,315,0.0,3.0,43,0.00,,,0.04,meteohub,2013-03-23 00:29:00,
2013-03-22 20:34:00,31.5,12.0,29.15,NW,315,0.0,1.0,44,0.00,,,0.04,meteohub,2013-03-23 00:34:00,
2013-03-22 20:39:00,31.1,11.8,29.15,NW,315,0.0,0.0,44,0.00,,,0.04,meteohub,2013-03-23 00:39:00,
2013-03-22 20:44:00,30.9,11.7,29.15,NW,315,0.0,0.0,44,0.00,,,0.04,meteohub,2013-03-23 00:44:00,
2013-03-22 20:49:00,30.4,11.7,29.15,NW,315,0.0,0.0,45,0.00,,,0.04,meteohub,2013-03-23 00:49:00,
2013-03-22 20:54:00,30.0,11.3,29.15,NW,315,0.0,0.0,45,0.00,,,0.04,meteohub,2013-03-23 00:54:00,
2013-03-22 20:59:00,29.8,11.7,29.15,NW,315,0.0,0.0,46,0.00,,,0.04,meteohub,2013-03-23 00:59:00,
2013-03-22 21:04:00,29.7,11.5,29.15,NW,315,0.0,0.0,46,0.00,,,0.04,meteohub,2013-03-23 01:04:00,
2013-03-22 21:09:00,29.3,11.7,29.15,NW,315,0.0,0.0,47,0.00,,,0.04,meteohub,2013-03-23 01:09:00,
2013-03-22 21:14:00,29.1,11.5,29.15,NW,315,0.0,0.0,47,0.00,,,0.04,meteohub,2013-03-23 01:14:00,
2013-03-22 21:19:00,28.8,11.7,29.18,NW,315,0.0,0.0,48,0.00,,,0.04,meteohub,2013-03-23 01:19:00,
2013-03-22 21:24:00,28.8,11.7,29.18,NW,315,0.0,0.0,48,0.00,,,0.04,meteohub,2013-03-23 01:24:00,
2013-03-22 21:29:00,28.9,11.7,29.18,NW,315,0.0,0.0,48,0.00,,,0.04,meteohub,2013-03-23 01:29:00,
2013-03-22 21:34:00,28.4,11.7,29.18,NW,315,0.0,0.0,49,0.00,,,0.04,meteohub,2013-03-23 01:34:00,
2013-03-22 21:39:00,28.0,11.8,29.18,NW,315,0.0,0.0,50,0.00,,,0.04,meteohub,2013-03-23 01:39:00,
2013-03-22 21:44:00,28.2,12.0,29.18,NW,315,0.0,0.0,50,0.00,,,0.04,meteohub,2013-03-23 01:44:00,
2013-03-22 21:49:00,28.0,11.8,29.18,NW,315,0.0,0.0,50,0.00,,,0.04,meteohub,2013-03-23 01:49:00,
2013-03-22 21:54:00,27.9,12.0,29.18,NW,315,0.0,0.0,51,0.00,,,0.04,meteohub,2013-03-23 01:54:00,
2013-03-22 21:59:00,27.9,12.0,29.18,NW,315,0.0,0.0,51,0.00,,,0.04,meteohub,2013-03-23 01:59:00,
2013-03-22 22:04:00,27.7,12.0,29.18,NW,315,0.0,0.0,51,0.00,,,0.04,meteohub,2013-03-23 02:04:00,
2013-03-22 22:09:00,27.5,12.2,29.18,NW,315,0.0,0.0,52,0.00,,,0.04,meteohub,2013-03-23 02:09:00,
2013-03-22 22:14:00,27.3,11.7,29.18,NW,315,0.0,0.0,51,0.00,,,0.04,meteohub,2013-03-23 02:14:00,
2013-03-22 22:19:00,27.3,12.0,29.18,NW,315,0.0,0.0,52,0.00,,,0.04,meteohub,2013-03-23 02:19:00,
2013-03-22 22:24:00,27.3,12.6,29.18,NW,315,0.0,0.0,53,0.00,,,0.04,meteohub,2013-03-23 02:24:00,
2013-03-22 22:29:00,27.5,13.1,29.18,NW,315,0.0,0.0,54,0.00,,,0.04,meteohub,2013-03-23 02:29:00,
2013-03-22 22:34:00,27.7,13.6,29.18,NW,315,0.0,0.0,55,0.00,,,0.04,meteohub,2013-03-23 02:34:00,
2013-03-22 22:39:00,27.9,13.5,29.18,NW,315,0.0,0.0,54,0.00,,,0.04,meteohub,2013-03-23 02:39:00,
2013-03-22 22:44:00,28.0,14.4,29.18,NW,315,0.0,0.0,56,0.00,,,0.04,meteohub,2013-03-23 02:44:00,
2013-03-22 22:49:00,28.4,14.4,29.18,NW,315,0.0,0.0,55,0.00,,,0.04,meteohub,2013-03-23 02:49:00,
2013-03-22 22:55:00,28.8,15.1,29.18,NW,315,0.0,0.0,56,0.00,,,0.04,meteohub,2013-03-23 02:55:00,
2013-03-22 23:00:00,29.1,15.4,29.18,NW,315,0.0,0.0,56,0.00,,,0.04,meteohub,2013-03-23 03:00:00,
2013-03-22 23:05:00,29.1,15.1,29.18,NW,315,0.0,0.0,55,0.00,,,0.04,meteohub,2013-03-23 03:05:00,
2013-03-22 23:10:00,29.5,15.3,29.18,NW,315,0.0,0.0,55,0.00,,,0.04,meteohub,2013-03-23 03:10:00,
2013-03-22 23:15:00,29.7,15.4,29.18,NW,315,0.0,0.0,55,0.00,,,0.04,meteohub,2013-03-23 03:15:00,
2013-03-22 23:20:00,29.8,15.6,29.18,NW,315,0.0,0.0,55,0.00,,,0.04,meteohub,2013-03-23 03:20:00,
2013-03-22 23:25:00,30.0,16.7,29.18,WSW,248,0.0,0.0,57,0.00,,,0.04,meteohub,2013-03-23 03:25:00,
2013-03-22 23:30:00,30.2,16.9,29.18,West,270,1.0,1.0,57,0.00,,,0.04,meteohub,2013-03-23 03:30:00,
2013-03-22 23:35:00,30.6,17.2,29.21,West,270,3.0,3.0,57,0.00,,,0.04,meteohub,2013-03-23 03:35:00,
2013-03-22 23:40:00,30.9,17.4,29.21,West,270,3.0,3.0,57,0.00,,,0.04,meteohub,2013-03-23 03:40:00,
2013-03-22 23:45:00,31.1,17.2,29.21,NW,315,2.0,4.0,56,0.00,,,0.04,meteohub,2013-03-23 03:45:00,
2013-03-22 23:50:00,31.1,17.2,29.18,WSW,248,3.0,4.0,56,0.00,,,0.04,meteohub,2013-03-23 03:50:00,
2013-03-22 23:55:00,31.1,17.2,29.18,West,270,1.0,4.0,56,0.00,,,0.04,meteohub,2013-03-23 03:55:00,